Regional Weather Roundup
Issued by NWS

Home | Current Version | Previous Version | Text Only | Print | Product List | Glossary On
Versions: 1 2 3 4 5 6 7 8 9 10 11 12 13 14 15 16 17 18 19 20 21 22 23 24 25 26 27 28
000
ASUS46 KSEW 030910
RWRWA

WASHINGTON REGIONAL WEATHER ROUNDUP
NATIONAL WEATHER SERVICE SEATTLE WA
200 AM PDT TUE MAY 03 2016

NOTE:"FAIR" INDICATES FEW OR NO CLOUDS BELOW 12,000 FEET WITH NO
SIGNIFICANT WEATHER AND/OR OBSTRUCTIONS TO VISIBILITY.

WAZ505-507>509-031000-
SEATTLE, TACOMA, EVERETT, AND VICINITY

CITY           SKY/WX    TMP DP  RH WIND       PRES   REMARKS
EVERETT        PTCLDY    65  42  43 E3        29.98S
BOEING FIELD   PTCLDY    64  46  52 CALM      29.97S
RENTON         PTCLDY    60  47  61 E3        29.96S
SEATAC AIRPORT PTCLDY    63  45  51 S5        29.98S
JBLM-MCCHORD   MOCLDY    61  48  62 W7        29.98S
PUYALLUP       FAIR      55  48  76 CALM      29.98F
BREMERTON      CLOUDY    57  50  77 S7        30.01S
JBLM-FT LEWIS  MOCLDY    61  48  63 SW6       29.98R
TACOMA NARROWS MOCLDY    61  45  55 SW5       30.00R
$$

WAZ001-503-506-510-514-515-031000-
NORTH INTERIOR

CITY           SKY/WX    TMP DP  RH WIND       PRES   REMARKS
BELLINGHAM     CLEAR     63  52  67 S8        29.95R
FRIDAY HARBOR  PTCLDY    52  48  86 CALM      29.96S
EASTSOUND      PTCLDY    63  48  59 S6        29.93S
PORT ANGELES   CLOUDY    58  49  72 W9        29.98S
EDIZ HOOK      PTSUNNY   57  51  79 W10       29.97S
PORT TOWNSEND  CLOUDY    55  50  82 CALM      29.97F
NAS WHIDBEY    PTCLDY    56  50  80 CALM      30.00F
ARLINGTON      PTCLDY    55  45  67 N3        29.99R
BURLINGTON     CLEAR     55  50  82 CALM      29.97R
$$

WAZ020-022-039-040-504-511-512-031000-
SOUTHWEST INTERIOR

CITY           SKY/WX    TMP DP  RH WIND       PRES   REMARKS
SHELTON        CLOUDY    56  52  86 SW14      29.97S
OLYMPIA        CLOUDY    57  48  72 N3        29.99R
CHEHALIS       CLOUDY    57  52  82 CALM      30.00S
KELSO          CLOUDY    57  48  72 NW5       30.05S
VANCOUVER      MOCLDY    59  49  69 CALM      30.00R
SCAPPOOSE, OR  MOCLDY    53  49  86 CALM      29.99R
PORTLAND, OR   MOCLDY    60  48  64 CALM      30.01R
$$

WAZ021-516-517-031000-
WASHINGTON COAST

CITY           SKY/WX    TMP DP  RH WIND       PRES   REMARKS
FORKS          CLOUDY    54  53  97 SW6       30.03R
HOQUIAM        CLOUDY    56  56 100 SW8       30.04R
ASTORIA, OR    CLOUDY    56  53  90 SW7       30.02F FOG
$$

WAZ019-023-024-040-518-519-031000-
CASCADE MOUNTAINS AND COLUMBIA GORGE

CITY           SKY/WX    TMP DP  RH WIND       PRES   REMARKS
STAMPEDE PASS  CLEAR     53  32  44 CALM      30.07F
TROUTDALE, OR  MOCLDY    60  47  61 CALM      30.00R
THE DALLES, OR PTCLDY    68  42  38 NW10      29.92R
$$

WAZ026-027-041>044-520-521-031000-
EAST SLOPES

CITY           SKY/WX    TMP DP  RH WIND       PRES   REMARKS
OMAK           CLEAR     51  39  63 NW3       30.02S
WENATCHEE      CLEAR     59  39  47 N3        30.00S
ELLENSBURG     PTCLDY    52  41  66 SE5       30.00F
YAKIMA         CLEAR     56  40  55 W8        29.97F
$$

WAZ028-034-035-031000-
COLUMBIA BASIN

CITY           SKY/WX    TMP DP  RH WIND       PRES   REMARKS
EPHRATA        CLEAR     55  43  63 NE9       29.99S
MOSES LAKE     CLEAR     54  43  66 N9        29.98F
PASCO          CLEAR     49  44  83 N5        29.95S
HERMISTON, OR  CLEAR     54  37  52 E9        29.93S
$$

WAZ036>038-031000-
NORTHEAST WASHINGTON

CITY           SKY/WX    TMP DP  RH WIND       PRES   REMARKS
SPOKANE GEIGER CLEAR     57  41  55 CALM      30.05S
SPOKANE FELTS  CLEAR     53  43  68 NE5       30.05F
FAIRCHILD AFB  CLEAR     54  40  59 E7        30.05S
COEURDALENE,ID CLEAR     50  43  76 NE6       30.05S
DEER PARK      CLEAR     42  38  85 N3        30.06S
$$

WAZ029>033-031000-
SOUTHEAST WASHINGTON

CITY           SKY/WX    TMP DP  RH WIND       PRES   REMARKS
PULLMAN        CLEAR     51  43  74 NE5       30.07F
LEWISTON, ID   CLEAR     59  43  55 CALM      30.03S
WALLA WALLA    LGT RAIN  69  29  22 SE14      29.96S
PENDLETON, OR  CLEAR     60  28  29 SE6       29.97S
$$




USA.gov is the U.S. government's official web portal to all federal, state and local government web resources and services.